Regional Weather Roundup
Issued by NWS Mt. Holly, NJ

Home | Current Version | Previous Version | Text Only | Print | Product List | Glossary On
Versions: 1 2 3 4 5 6 7 8 9 10 11 12 13 14 15 16 17 18 19 20 21 22 23 24 25 26 27
000
ASUS41 KPHI 251112
RWRPHI

REGIONAL WEATHER ROUNDUP
NATIONAL WEATHER SERVICE MOUNT HOLLY NJ
700 AM EDT TUE JUL 25 2017

NOTE:  "FAIR" INDICATES FEW OR NO CLOUDS BELOW 12,000 FEET WITH NO
SIGNIFICANT WEATHER AND/OR OBSTRUCTIONS TO VISIBILITY.

 * = STATION DOES NOT REPORT PRECIPITATION (E.G. RAIN, SNOW, ETC.)
        OR FOG.

NJZ015>026-251200-
SOUTHERN NEW JERSEY

CITY           SKY/WX    TMP DP  RH WIND       PRES   REMARKS
POMONA         CLOUDY    69  68  96 N8        29.99R
WILDWOOD*      CLOUDY    70  69  97 N6        29.99R
MILLVILLE      CLOUDY    68  68 100 N5        29.99R
WRIGHTSTOWN    LGT RAIN  64  63  94 NE7       29.99R
MOUNT HOLLY    CLOUDY    65  65 100 N5        30.01R
TRENTON        CLOUDY    64  62  93 NE5       30.02R

$$
NJZ001>014-251200-
NORTHERN NEW JERSEY

CITY           SKY/WX    TMP DP  RH WIND       PRES   REMARKS
SUSSEX         LGT RAIN  60  59  96 N3        30.04R FOG
ANDOVER*         N/A     60  58  92 CALM      30.04R
MORRISTOWN     RAIN      61  59  94 CALM      30.04R FOG
NEWARK         CLOUDY    63  61  93 N6        30.02R
TETERBORO      CLOUDY    62  59  90 NE5       30.02R
CALDWELL       CLOUDY    60  59  96 VRB3      30.04R
SOMERVILLE     CLOUDY    63  61  93 CALM      30.01R
ALLAIRE*       CLOUDY    64  63  96 NE8       30.02R FOG
TOMS RIVER*    LGT RAIN  65  64  97 NE8       30.01R FOG

$$
PAZ043-044-047-054-055-060>062-066>071-251200-
EASTERN PENNSYLVANIA

CITY           SKY/WX    TMP DP  RH WIND       PRES   REMARKS
PHILADELPHIA   LGT RAIN  67  64  90 NE6       30.01R
NORTH PHILA    CLOUDY    67  63  87 NE6       30.03R
BLUE BELL*     CLOUDY    63  63 100 CALM      30.03S
DOYLESTOWN     CLOUDY    63  63 100 CALM      30.02R
QUAKERTOWN*    CLOUDY    64  64 100 SE3       30.03R
PERKASIE*      CLOUDY    63  63 100 CALM      30.04R
POTTSTOWN      CLOUDY    64  64 100 NE3       30.04R FOG
LANCASTER      SUNNY     65  62  90 W7        30.02R
READING        PTSUNNY   67  65  93 NW6       30.01R
ALLENTOWN      CLOUDY    66  62  87 NE5       30.02R
MOUNT POCONO   CLOUDY    61  61 100 CALM      30.05R
HAZLETON         N/A     63  61  94 CALM      30.08R
LEHIGHTON      CLOUDY    63  63 100 CALM      30.03R FOG
WILKES BARRE   CLOUDY    67  63  87 CALM      30.03R

$$
DEZALL-MDZ008-012-015-019-020-251200-
DELAWARE AND EASTERN MARYLAND

CITY           SKY/WX    TMP DP  RH WIND       PRES   REMARKS
WILMINGTON     CLOUDY    69  68  96 N6        30.01R FOG
DOVER          PTSUNNY   72  72 100 W5        29.98R
GEORGETOWN     CLOUDY    71  69  93 W6        30.00R FOG
EASTON         MOSUNNY   70  64  83 CALM      30.05R
ABERDEEN       MOSUNNY   66  60  80 CALM      30.02R
PATUXENT       CLOUDY    73  61  65 N15       30.02R
OCEAN CITY     CLOUDY    71  71 100 NW8       29.99R FOG
WALLOPS ISLAND SUNNY     72  71  97 N7        30.00R
CAMBRIDGE      SUNNY     75  63  64 NW6       30.00R
SALISBURY      PTSUNNY   72  72 100 NW7       29.99R FOG

$$
PAZ001-021-NYZ056-072-MDZ011-DCZ001-251200-
OTHER NEARBY LOCATIONS

CITY           SKY/WX    TMP DP  RH WIND       PRES   REMARKS
HARRISBURG     PTCLDY    68  59  73 NW7       30.03R
STATE COLLEGE  CLOUDY    63  57  82 CALM      30.08R
WILLIAMSPORT   CLOUDY    67  61  81 W6        30.03R
BINGHAMTON     CLOUDY    59  58  96 NW9       30.04R
NEW YORK CITY  CLOUDY    64  59  83 VRB3      30.05R
BALTIMORE      CLOUDY    65  60  84 W7        30.03R
WASHINGTON DC  CLOUDY    71  57  61 NW9       30.05R

$$




USA.gov is the U.S. government's official web portal to all federal, state and local government web resources and services.